This demonstration page uses our WeatherBlox Daily Observations layout. Learn more.

Left ArrowRight Arrow

30.21309, -93.2044

Hourly Observations for June 15, 2019

Temp ( °F °C ) Dew Point ( °F °C ) Humidity (%) Winds ( mph kmh ) Pressure ( in mb ) Visibility ( mi km ) Precip ( " mm )
12:15 am 00:15 Mostly Cloudy 74 23.2 71 21.6 91 91 ESE 3 6 30.00 1016 10 16 0.00 0.00
12:35 am 00:35 Partly Cloudy 74 23.5 71 21.8 90 90 E 6 9 30.00 1016 10 16 0.00 0.00
12:55 am 00:55 Mostly Cloudy 73 22.9 71 21.6 92 92 ESE 3 6 30.00 1016 10 16 0.00 0.00
1:15 am 01:15 Partly Cloudy 73 22.7 71 21.8 95 95 SE 3 6 29.99 1016 10 16 0.00 0.00
1:35 am 01:35 Clear 73 22.8 72 22 95 95 SE 3 6 29.99 1016 10 16 0.00 0.00
1:55 am 01:55 Clear 73 22.7 72 22 96 96 SE 3 6 29.98 1015 10 16 0.00 0.00
2:15 am 02:15 Partly Cloudy 73 23 72 22.2 95 95 SE 5 7 29.97 1015 10 16 0.00 0.00
2:35 am 02:35 Partly Cloudy 74 23.1 72 22.2 95 95 ESE 3 6 29.97 1015 10 16 0.00 0.00
2:55 am 02:55 Partly Cloudy 74 23.1 72 22.3 95 95 SE 3 6 29.96 1015 10 16 0.00 0.00
3:15 am 03:15 Clear 73 23 73 22.5 97 97 Calm 29.97 1015 10 16 0.00 0.00
3:35 am 03:35 Partly Cloudy 74 23.2 73 22.7 97 97 Calm 29.97 1015 10 16 0.00 0.00
3:55 am 03:55 Partly Cloudy 73 22.6 72 22.1 97 97 E 3 6 29.97 1015 10 16 0.00 0.00
4:15 am 04:15 Clear 73 22.6 72 22.2 98 98 ESE 3 6 29.97 1015 10 16 0.00 0.00
4:35 am 04:35 Clear 73 22.6 72 22.2 98 98 E 6 9 29.97 1015 10 16 0.00 0.00
4:55 am 04:55 Partly Cloudy 73 22.7 72 22.3 98 98 ESE 3 6 29.97 1015 7 11 0.00 0.00
5:15 am 05:15 Clear 73 22.8 72 22.4 98 98 SE 6 9 29.97 1015 10 16 0.00 0.00
5:35 am 05:35 Clear 73 22.8 72 22.4 98 98 SE 3 6 29.97 1015 10 16 0.00 0.00
6:00 am 06:00 Mostly Clear 73 23 72 22 94 94 ESE 3 6 29.97 1015 10 16 0.00 0.00
6:55 am 06:55 Partly Cloudy 75 24 73 23 94 94 Calm 29.99 1016 10 16 0.00 0.00
7:45 am 07:45 Partly Cloudy 81 27 77 25 89 89 ESE 3 6 30.00 1016 10 16 0.00 0.00
8:45 am 08:45 Mostly Cloudy 84 29 77 25 79 79 SSE 7 11 30.02 1017 10 16 0.00 0.00
9:45 am 09:45 Mostly Cloudy 86 30 75 24 70 70 S 12 19 30.02 1017 10 16 0.00 0.00
10:45 am 10:45 Mostly Cloudy 88 31 75 24 66 66 S 13 20 30.02 1017 10 16 0.00 0.00
11:55 am 11:55 Mostly Cloudy 88 31 77 25 70 70 S 13 20 30.02 1017 10 16 0.00 0.00
12:45 pm 12:45 Mostly Cloudy 90 32 77 25 67 67 S 17 28 30.00 1016 10 16 0.00 0.00
1:45 pm 13:45 Mostly Cloudy 88 31 73 23 62 62 SSW 15 24 29.99 1016 10 16 0.00 0.00
2:50 pm 14:50 Mostly Cloudy 90 32 73 23 59 59 SSW 18 30 29.97 1015 10 16 0.00 0.00
3:50 pm 15:50 Mostly Cloudy 90 32 75 24 63 63 SSW 13 20 29.96 1015 10 16 0.00 0.00
4:50 pm 16:50 Partly Cloudy 88 31 73 23 62 62 S 14 22 29.95 1014 10 16 0.00 0.00
5:50 pm 17:50 Partly Cloudy 86 30 73 23 66 66 SSW 12 19 29.94 1014 10 16 0.00 0.00
6:50 pm 18:50 Mostly Cloudy 86 30 75 24 70 70 S 10 17 29.94 1014 10 16 0.00 0.00
7:55 pm 19:55 Partly Cloudy 82 28 75 24 79 79 SSE 8 13 29.96 1015 10 16 0.00 0.00
8:50 pm 20:50 Partly Cloudy 81 27 75 24 84 84 SE 9 15 29.96 1015 10 16 0.00 0.00
9:50 pm 21:50 Mostly Clear 79 26 75 24 89 89 SE 7 11 29.96 1015 10 16 0.00 0.00
10:15 pm 22:15 Clear 79 25.9 75 24.1 90 90 SE 6 9 29.97 1015 10 16 0.00 0.00
10:35 pm 22:35 Clear 78 25.7 75 24.1 91 91 SE 6 9 29.97 1015 10 16 0.00 0.00
10:55 pm 22:55 Clear 78 25.6 75 24 91 91 SE 6 9 29.97 1015 10 16 0.00 0.00
11:15 pm 23:15 Clear 78 25.5 75 24.1 92 92 SSE 6 9 29.97 1015 10 16 0.00 0.00
11:35 pm 23:35 Clear 78 25.5 75 24 91 91 SE 5 7 29.97 1015 10 16 0.00 0.00
11:55 pm 23:55 Partly Cloudy 78 25.3 75 24 93 93 SE 6 9 29.97 1015 10 16 0.00 0.00

Powered by AerisWeather